Regional Weather Roundup
Issued by NWS

Home | Current Version | Previous Version | Graphics & Text | Print | Product List | Glossary On
Versions: 1 2 3 4 5 6 7 8 9 10 11 12 13 14 15 16 17 18 19 20 21 22 23 24 25 26 27 28 29 30 31 32 33 34 35 36 37 38 39 40 41 42 43 44 45 46 47 48 49 50
000
ASUS45 KBOU 301607
RWRCO

WEATHER ROUNDUP FOR COLORADO
NATIONAL WEATHER SERVICE DENVER/BOULDER CO
1000 AM MDT WED JUL 30 2014

NOTE: "FAIR" INDICATES FEW OR NO CLOUDS BELOW 12000 FEET WITH NO
SIGNIFICANT WEATHER AND/OR OBSTRUCTIONS TO VISIBILITY.

COZ001>005-013-030-031-301700-
...NORTHWEST COLORADO...

CITY           SKY/WX    TMP DP  RH WIND       PRES   REMARKS
CRAIG          CLOUDY    54  32  43 SW8       30.31S
HAYDEN         CLOUDY    61  54  77 CALM      30.32S
MEEKER         PTSUNNY   62  53  72 CALM      30.32S
MOUNT WERNER   NOT AVBL
STEAMBOAT SPGS CLOUDY    55  54  95 CALM      30.34S
WALDEN         CLOUDY    52  48  87 NE3       30.42R
$$

COZ006>008-011-301700-
...WEST CENTRAL VALLEYS...

CITY           SKY/WX    TMP DP  RH WIND       PRES   REMARKS
GRAND JUNCTION SUNNY     69  56  62 VRB6      30.22S
MONTROSE       SUNNY     69  56  62 NW6       30.27F
EAGLE          PTSUNNY   64  55  72 CALM      30.33F
RIFLE          CLOUDY    65  55  70 E3        30.26F
DELTA          SUNNY     69  57  65 CALM      30.24F
NUCLA          SUNNY     68  55  64 CALM      30.30F
$$

COZ017>023-064>068-301700-
...SOUTHWEST COLORADO...

CITY           SKY/WX    TMP DP  RH WIND       PRES   REMARKS
DURANGO        SUNNY     71  51  49 CALM      30.29F
CORTEZ         SUNNY     75  49  39 E6        30.24F
PAGOSA SPRINGS SUNNY     66  47  50 SW5       30.37F
TELLURIDE      SUNNY     63  43  48 CALM      30.44F
WOLF CREEK PAS NOT AVBL
$$

COZ009-010-012-014-032>034-037-058>063-301700-
...CENTRAL COLORADO...

CITY           SKY/WX    TMP DP  RH WIND       PRES   REMARKS
ASPEN          PTSUNNY   60  50  69 VRB3      30.37F
BUENA VISTA    MOSUNNY   63  50  63 E6        30.40S
COPPER MTN     CLOUDY    48  43  81 W8        30.64R
BERTHOUD PASS  DRZL/FOG  37  36  93 MISG      30.68R VSB 1/2
COTTONWOOD PAS PTSUNNY   63  50  63 E8        30.50F
GUNNISON       SUNNY     61  48  63 SW3       30.40F
KREMMLING      CLOUDY    59  52  77 E5        30.39S
LEADVILLE      PTSUNNY   54  42  64 CALM      30.49S
MONARCH PASS   PTSUNNY   46  41  81 W5        30.73S
SALIDA         CLOUDY    62  57  83 SE3       30.45S
SUNLIGHT       PTSUNNY   54  48  82 CALM      30.57S
WILKERSON PASS FOG       45  43  93 NE5       30.62S VSB 1/4
$$

COZ069>075-301700-
...SAN LUIS VALLEY/SANGRE DE CRISTO MOUNTAINS...

CITY           SKY/WX    TMP DP  RH WIND       PRES   REMARKS
ALAMOSA        MOSUNNY   65  52  62 CALM      30.36S
LA VETA PASS   FOG       50  46  87 CALM      30.53R VSB<1/4
SAGUACHE       MOSUNNY   63  48  59 SE3       30.39S
$$

COZ035-036-038>040-301700-
...NORTHERN COLORADO FRONT RANGE...

CITY           SKY/WX    TMP DP  RH WIND       PRES   REMARKS
DENVER INTL AP CLOUDY    60  57  89 NE14      30.32S
DMNS CITY PARK   N/A     59  58  96 N9        30.32S
AURORA         LGT RAIN  58  58 100 E10       30.34R FOG
FRONT RANGE AP LGT RAIN  63  59  88 NE12      30.33S
ERIE MUNI ARPT LGT RAIN  60  58  93 N7        30.32S
BOULDER MUN AP   N/A    N/A N/A N/A MISG        N/A
CENTENNIAL     LGT RAIN  58  56  93 E8        30.34S FOG
BROOMFIELD     LGT RAIN  59  59 100 N9        30.35R FOG
FORT COLLINS   CLOUDY    61  57  88 N6        30.35R
LONGMONT       LGT RAIN  63  59  89 N6        30.35R
$$

COZ041-046-047-076>085-087-088-301700-
...PIKES PEAK/PALMER DIVIDE AND SOUTHERN FOOTHILLS...

CITY           SKY/WX    TMP DP  RH WIND       PRES   REMARKS
COLO. SPRINGS  LGT RAIN  59  56  89 E7        30.35S
A. F. ACADEMY  LGT RAIN  57  57  99 NW6       30.36S FOG
ELLICOTT       LGT RAIN  58  56  93 E13       30.33S
FALCON         CLOUDY    58  57  96 NE6       30.38S
FORT CARSON    DRIZZLE   58  58 100 E7        30.33S FOG
LIMON          CLOUDY    59  56  89 NE13      30.32R
MONUMENT HILL  DRIZZLE   54  52  94 E9        30.37S
TRINIDAD       CLOUDY    61  56  83 N8        30.30S
$$

COZ042>045-048>051-090-091-301700-
...NORTHEAST COLORADO...

CITY           SKY/WX    TMP DP  RH WIND       PRES   REMARKS
GREELEY ARPT   NOT AVBL
AKRON          CLOUDY    59  58  96 E9        30.30R FOG
BURLINGTON     CLOUDY    61  56  83 E9G17     30.27R
WRAY             N/A     64  60  90 E3        30.27S
STERLING       CLOUDY    66  63  88 CALM      30.28R
HOLYOKE        CLOUDY    66  61  82 CALM      30.28R
FORT MORGAN    CLOUDY    60  58  94 E6        30.31R
$$

COZ086-089-092>099-301700-
...SOUTHEAST COLORADO...

CITY           SKY/WX    TMP DP  RH WIND       PRES   REMARKS
PUEBLO         CLOUDY    64  61  90 E8        30.27S
LA JUNTA       CLOUDY    66  60  81 NE14      30.24R
LAMAR          LGT RAIN  62  60  93 NE17G24   30.21R
SPRINGFIELD      N/A     64  62  93 NE17G23   30.20R
$$


USA.gov is the U.S. government's official web portal to all federal, state and local government web resources and services.